Cherry Point, NC

3:32 PM EST on February 19, 2017 (GMT -0500)
Cherry Point Marine Corps Air Station

Weather History for KNKT - April, 2012

Change the Weather History Date:

Tuesday, April 3, 2012

  Actual Average Record
Temperature  
Mean Temperature 54 °F -  
Max Temperature 71 °F 67 °F 82 °F (2007)
Min Temperature 39 °F 47 °F 37 °F (2011)
Degree Days  
Heating Degree Days 10    
Growing Degree Days 4 (Base 50)    
Moisture  
Dew Point 42 °F    
Average Humidity 63    
Maximum Humidity 93    
Minimum Humidity 28    
Precipitation  
Precipitation 0.01 in - - ()
Sea Level Pressure  
Sea Level Pressure 29.98 in    
Wind  
Wind Speed 2 mph ()    
Max Wind Speed 13 mph    
Max Gust Speed 21 mph    
Visibility 9.6 miles    
Events Fog    
Averages and records for this station are not official NWS values.
T = Trace of Precipitation, MM = Missing Value Source: Averaged Metar Reports

Daily Weather History Graph

Daily Weather History Graph

Search for Another Location

Airport or City:

Trip Planner

Search our weather history database for the weather conditions in past years. The results will help you decide how hot, cold, wet, or windy it might be!

Date:

Astronomy

Apr. 03, 2012 Rise Set
Actual Time 6:51 AM EDT 7:30 PM EDT
Civil Twilight 6:25 AM EDT 7:56 PM EDT
Nautical Twilight 5:55 AM EDT 8:26 PM EDT
Astronomical Twilight 5:24 AM EDT 8:57 PM EDT
Moon 4:18 PM EDT (4/3) 4:29 AM EDT (4/3)
Length of Visible Light 13h 30m
Length of Day
12h 39m
Waxing Gibbous, 86% of the Moon is Illuminated
Apr 3
Waxing Gibbous
Apr 6
Full
Apr 13
Last Quarter
Apr 21
New
Apr 29
First Quarter

Hourly Weather History & Observations

Time (EDT) Temp. Dew Point Humidity Pressure Visibility Wind Dir Wind Speed Gust Speed Precip Events Conditions
12:54 AM 48.0 °F 44.1 °F 86% 29.97 in 10.0 mi Calm Calm - N/A   Clear
1:54 AM 46.0 °F 43.0 °F 89% 29.98 in 10.0 mi Calm Calm - N/A   Clear
2:54 AM 46.9 °F 44.1 °F 90% 29.98 in 10.0 mi Calm Calm - N/A   Clear
3:54 AM 44.1 °F 42.1 °F 93% 29.99 in 9.0 mi Calm Calm - N/A   Clear
4:54 AM 42.1 °F 39.9 °F 92% 30.00 in 8.0 mi Calm Calm - N/A   Clear
5:54 AM 43.0 °F 39.9 °F 89% 30.01 in 8.0 mi Calm Calm - N/A   Clear
6:54 AM 39.0 °F 37.0 °F 93% 30.02 in 6.0 mi Calm Calm - N/A   Clear
7:54 AM 45.0 °F 42.1 °F 90% 30.03 in 10.0 mi Calm Calm - N/A Fog Patches of Fog
8:54 AM 55.0 °F 50.0 °F 83% 30.04 in 10.0 mi Calm Calm - N/A   Clear
9:54 AM 63.0 °F 39.0 °F 41% 30.04 in 10.0 mi Calm Calm - N/A   Partly Cloudy
10:54 AM 64.9 °F 30.9 °F 28% 30.05 in 10.0 mi NE 10.4 mph 16.1 mph N/A   Partly Cloudy
11:54 AM 64.9 °F 35.1 °F 33% 30.04 in 10.0 mi Calm Calm - N/A   Clear
12:54 PM 68.0 °F 39.9 °F 36% 30.01 in 10.0 mi WNW 4.6 mph - N/A   Partly Cloudy
1:54 PM 70.0 °F 39.0 °F 32% 30.01 in 10.0 mi Variable 4.6 mph - N/A   Partly Cloudy
2:54 PM 69.1 °F 41.0 °F 36% 29.99 in 10.0 mi South 12.7 mph 20.7 mph 0.01 in   Scattered Clouds
3:54 PM 68.0 °F 39.9 °F 36% 29.97 in 10.0 mi South 10.4 mph - N/A   Clear
4:54 PM 68.0 °F 39.9 °F 36% 29.94 in 10.0 mi SSW 11.5 mph - N/A   Scattered Clouds
5:54 PM 66.9 °F 41.0 °F 39% 29.93 in 10.0 mi South 12.7 mph - N/A   Partly Cloudy
6:54 PM 63.0 °F 43.0 °F 48% 29.94 in 10.0 mi South 8.1 mph - N/A   Clear
7:54 PM 59.0 °F 44.1 °F 58% 29.94 in 10.0 mi South 4.6 mph - N/A   Clear
8:54 PM 57.9 °F 46.0 °F 65% 29.94 in 10.0 mi South 3.5 mph - N/A   Clear
9:54 PM 57.9 °F 48.0 °F 70% 29.95 in 10.0 mi SSW 3.5 mph - N/A   Clear
10:54 PM 57.9 °F 48.9 °F 72% 29.94 in 10.0 mi SSW 3.5 mph - N/A   Clear
11:54 PM 57.9 °F 52.0 °F 81% 29.89 in 10.0 mi SSW 9.2 mph - N/A   Clear